Regional Weather Roundup
Issued by NWS

Home | Current Version | Previous Version | Text Only | Print | Product List | Glossary On
Versions: 1 2 3 4 5 6 7 8 9 10 11 12 13 14 15 16 17 18 19 20 21 22 23 24 25 26 27 28
000
ASUS45 KPSR 210910
RWRAZ

ARIZONA HOURLY REGIONAL WEATHER ROUNDUP
NATIONAL WEATHER SERVICE PHOENIX AZ
200 AM MST SAT OCT 21 2017

NOTE: FAIR INDICATES FEW OR NO CLOUDS BELOW 12,000 FEET WITH NO
SIGNIFICANT WEATHER AND/OR OBSTRUCTIONS TO VISIBILITY.

AZZ001>003-036-211000-
NORTHWEST ARIZONA

CITY           SKY/WX    TMP DP  RH WIND       PRES   REMARKS
BULLHEAD CITY  CLEAR     68  36  30 CALM      29.86R
KINGMAN        CLEAR     50  27  40 E8        29.94R
$$

AZZ004>008-015-016-018-211000-
NORTH CENTRAL ARIZONA

CITY           SKY/WX    TMP DP  RH WIND       PRES   REMARKS
GRAND CANYON   CLEAR     39  30  70 NE3       30.01R
WILLIAMS       CLEAR     43  37  81 W3        30.01R
PRESCOTT       CLEAR     47  39  74 CALM      29.96R
FLAGSTAFF      CLEAR     39  35  86 CALM      30.01F
PAYSON         CLEAR     54  37  54 W5        29.98F
PAGE           CLEAR     52  20  28 W6        29.94R
$$

AZZ009>014-017-211000-
NORTHEAST ARIZONA

CITY           SKY/WX    TMP DP  RH WIND       PRES   REMARKS
WINSLOW        CLEAR     51  39  63 W5        29.95R
SAINT JOHNS    CLEAR     53  36  52 N6        29.97R
WINDOW ROCK    MOCLDY    50  37  61 SW8       29.98S
SHOW LOW       CLEAR     46  37  71 S6        30.03R
$$

AZZ540-542>544-546-548-211000-
GREATER PHOENIX AREA

CITY           SKY/WX    TMP DP  RH WIND       PRES   REMARKS
PHOENIX        PTCLDY    71  44  37 NW6       29.80R
BUCKEYE        CLOUDY    63  45  51 SW7       29.82F
LUKE AFB       CLEAR     67  45  46 S12       29.79F
DEER VALLEY    CLOUDY    66  44  45 SW7       29.82R
SCOTTSDALE     CLEAR     69  41  36 CALM      29.83S
MESA-GATEWAY   CLEAR     64  43  45 SW8       29.84S
$$

AZZ539-553-211000-
SOUTHWEST MARICOPA COUNTY AND PINAL COUNTY

CITY           SKY/WX    TMP DP  RH WIND       PRES   REMARKS
CASA GRANDE    NOT AVBL
$$

AZZ503-504-507>509-211000-
SOUTHEAST ARIZONA

CITY           SKY/WX    TMP DP  RH WIND       PRES   REMARKS
TUCSON         CLEAR     65  41  41 CALM      29.90F
DAVIS-MONTHAN  CLEAR     62  39  43 CALM      29.88F
NOGALES        CLEAR     58  43  57 NW3       29.96F
SIERRA VISTA   CLEAR     59  46  60 NW7       29.97F
DOUGLAS        CLEAR     58  45  62 S9        29.95F
SAFFORD        CLEAR     67  41  38 NW13      29.85F
$$

AZZ532-211000-
SOUTHWEST ARIZONA

CITY           SKY/WX    TMP DP  RH WIND       PRES   REMARKS
YUMA           CLEAR     65  45  48 W7        29.84R
$$

CAZ041-043-047-048-061-525>527-560>570-211000-
SOUTHERN CALIFORNIA

CITY           SKY/WX    TMP DP  RH WIND       PRES   REMARKS
DOWNTOWN L.A.  CLEAR     67  38  34 VRB3      29.97R
L.A. AIRPORT   CLEAR     64  36  35 N13G20    29.98R
SAN DIEGO      PTCLDY    65  54  67 SE10      30.00S
BURBANK        CLEAR     61  34  36 NW10G20   29.97F
ONTARIO        PTCLDY    58  54  86 CALM      29.98S
RIVERSIDE      CLEAR     59  54  83 E3        29.99R
PALM SPRINGS   PTCLDY    69  48  47 W3        29.88R
EL CENTRO NAS  CLEAR     67  42  40 W12       29.86R
IMPERIAL       CLEAR     64  45  49 W9        29.85R
BLYTHE         PTCLDY    64  49  57 CALM      29.84R
NEEDLES        CLEAR     67  34  29 W5        29.85R
$$

NVZ020-UTZ003-211000-
SOUTHERN NEVADA-UTAH

CITY           SKY/WX    TMP DP  RH WIND       PRES   REMARKS
LAS VEGAS      CLEAR     64   9  11 N15       29.95R
SALT LAKE CITY MOCLDY    42  30  62 SW3       30.06R
$$

NMZ009-TXZ055-211000-
NEW MEXICO-WEST TEXAS

CITY           SKY/WX    TMP DP  RH WIND       PRES   REMARKS
ALBUQUERQUE    CLOUDY    61  35  37 VRB6      29.91S
EL PASO        PTCLDY    70  44  39 SW10G21   29.89S
$$


........................KEY........................
SKY/WX - SKY CONDITION/WEATHER
TMP    - TEMPERATURE IN FAHRENHEIT
DP     - DEW POINT IN FAHRENHEIT
RH     - RELATIVE HUMIDITY IN PERCENT
WIND   - DIRECTION AND SPEED IN MILES PER HOUR (MPH)
VRB    - VARIABLE WIND DIRECTION
PRES   - MEAN SEA LEVEL PRESSURE IN INCHES OF MERCURY
         F - FALLING PRESSURE   R - RISING PRESSURE
         S - STEADY PRESSURE
VSB    - VISIBILITY IN MILES
HX     - HEAT INDEX IN FAHRENHEIT
WCI    - WIND CHILL INDEX IN FAHRENHEIT
TC     - TEMPERATURE IN CELSIUS WHICH IS ALSO KNOWN AS
         TEMPERATURE IN CENTIGRADE
AFB    - AIR FORCE BASE
         LUKE AFB IS LUKE AIR FORCE BASE
         DAVIS-MONTHAN IS DAVIS-MONTHAN AIR FORCE BASE
NAS    - NAVAL AIR STATION
         EL CENTRO NAS IS EL CENTRO NAVAL AIR STATION
N/A    - NOT AVAILABLE





USA.gov is the U.S. government's official web portal to all federal, state and local government web resources and services.